User: anonymous   Login
Location: Red Shale Campground
(45.5700°N, 106.1600°W)
Time: 06:31:53
(UTC-06:00)
Language:

FENGYUN 3A - Orbit

View from above orbital plane
View from above orbital plane
View from above satellite
View from above satellite

Ground track
Ground track

The orbit data is extracted from the following two-line orbital elements,

1 32958U 08026A   16151.22423824  .00000020  00000-0  29159-4 0  9996
2 32958  98.4535 192.0790 0008901 318.3883  41.6622 14.19619343415005
Epoch (UTC): 30 May 2016 05:22:54
Eccentricity: 0.0008901
inclination: 98.4535°
perigee height: 820 km
apogee height: 833 km
right ascension of ascending node: 192.0790°
argument of perigee: 318.3883°
revolutions per day: 14.19619343
mean anomaly at epoch: 41.6622°
orbit number at epoch: 41500

The dashed part of the orbit path shows where the satellite is in the earth's shadow,  

DLR